Regional Weather Roundup
Issued by NWS Cleveland, OH

Home | Current Version | Previous Version | Graphics & Text | Print | Product List | Glossary On
Versions: 1 2 3 4 5 6 7 8 9 10 11 12 13 14 15 16 17 18 19 20 21 22 23 24 25 26 27 28 29 30 31 32 33 34 35 36 37 38 39 40 41 42 43 44 45 46 47 48 49 50
000
ASUS41 KCLE 312010
RWRCLE
OHIO REGIONAL WEATHER ROUNDUP
NATIONAL WEATHER SERVICE CLEVELAND, OH
400 PM EDT FRI JUL 31 2015

NOTE: "FAIR" INDICATES FEW OR NO CLOUDS BELOW 12,000 FEET WITH NO
SIGNIFICANT WEATHER AND/OR OBSTRUCTIONS TO VISIBILITY.

OHZ001>008-015>018-024>027-034-035-043-044-312100-
   NORTHWEST OHIO

CITY           SKY/WX    TMP DP  RH WIND       PRES   REMARKS
DEFIANCE       PTSUNNY   88  59  37 NW17      29.90F
FINDLAY        MOSUNNY   87  59  38 W15G22    29.91F
TOLEDO EXPRESS MOSUNNY   86  58  38 W16G26    29.88F
TOLEDO EXEC    PTSUNNY   89  56  32 W17G28    29.88F
LIMA           MOSUNNY   86  58  38 W18       29.94F
$$

OHZ009>014-019>023-028>033-038-089-312100-
   NORTHEAST OHIO

CITY           SKY/WX    TMP DP  RH WIND       PRES   REMARKS
CLE-HOPKINS    MOSUNNY   87  54  32 W17G25    29.92F
CLE-LAKEFRONT  SUNNY     85  61  44 W14       29.88F
CUY CO. ARPT   MOSUNNY   86  57  37 W14G23    29.91F
LORAIN-ELYRIA  MOSUNNY   82  56  40 W12       29.91F
ASHTABULA      SUNNY     84  52  33 W15G24    29.90F
AKRON-CANTON   MOSUNNY   86  56  35 W16G25    29.93F
WOOSTER        MOSUNNY   83  56  39 W12G20    29.94F
MANSFIELD      MOSUNNY   84  55  36 W9G20     29.95F
YOUNGSTOWN     PTSUNNY   84  57  39 W8        29.91F
$$

OHZ042-051>053-060>062-070>072-077>081-312100-
  SOUTHWEST OHIO

CITY           SKY/WX    TMP DP  RH WIND       PRES   REMARKS
CINC-COVINGTON MOSUNNY   87  58  37 NW16      30.01F
CINC-LUNKEN    MOSUNNY   87  59  38 W12G17    29.99F
HAMILTON       MOSUNNY   86  60  41 W8        30.00F
DAYTON         MOSUNNY   85  59  41 W16       29.99F
WRIGHT-PAT AFB MOSUNNY   85  60  42 W9        29.97F
DAYTON GENERAL MOSUNNY   86  56  35 W9        29.99F
WILMINGTON     SUNNY     85  57  38 W14       30.00F
$$

OHZ036-037-039>041-045>050-054>059-063>069-073>076-082>088-312100-
  CENTRAL AND SOUTHEAST OHIO

CITY           SKY/WX    TMP DP  RH WIND       PRES   REMARKS
COLUMBUS       MOSUNNY   86  57  37 W9G22     29.95F
OSU AIRPORT    MOSUNNY   85  62  46 W13       29.96F
BOLTON FIELD   SUNNY     84  61  45 NW8       29.98F
RICKENBACK AFB MOSUNNY   84  60  43 NW10G20   29.96F
NEWARK         SUNNY     86  56  35 W8        29.95F
MARION         MOSUNNY   86  56  35 W13       29.95F
LANCASTER      MOSUNNY   84  59  42 W13       29.97F
ZANESVILLE     PTSUNNY   84  61  45 SW7       29.94F
NEW PHILLY     SUNNY     84  60  44 W9        29.94F
$$


USA.gov is the U.S. government's official web portal to all federal, state and local government web resources and services.